sat.trackr.live / text

‹ back to catalog

EUTELSAT 16A

NORAD 37836 · 2011-057A

PAYLOAD ACTIVE UNKNOWN

§ Identity

Operator
Country
EUTE
Launch date
2011-10-07
Launch site
XICLF
Launch vehicle
Mass (kg)
RCS (m²)
7.66

Purposes: comms

External: N2YO · Heavens-Above · Gunter

§ Orbital elements

Epoch: 2026-05-25T03:49:09.327072Z

Period
1,436.11 min
Inclination
0.0459°
Eccentricity
0.0005913
Mean motion
1.00270678 rev/d
Perigee alt
35,762.0 km
Apogee alt
35,811.8 km
Semi-major
42,165.0 km
B*
0.0000e+0
RAAN
359.2899°
Arg perigee
70.2259°
Mean anomaly
246.5246°
Rev number
710

§ Raw data

EUTELSAT 16A1 37836U 11057A   26145.15913573  .00000101  00000+0  00000+0 0  99932 37836   0.0459 359.2899 0005913  70.2259 246.5246  1.00270678  7103

JSON: /api/v1/satellites/37836 · /tle

For live sub-satellite position, see the globe view (requires WebGL).

§ Visibility from observer

Set your observer location to see the next 7 days of passes ≥ 10°. The values pass through the URL so the page stays shareable.

No JS? Fill the form by hand. The geolocation button needs JavaScript.